Tracking 31027 objects as of 19-Jul-2025
HD Live streaming from Space Station
objects crossing your sky now

STARLINK-3549

Track STARLINK-3549 now!
10-day predictions
STARLINK-3549 is classified as:


NORAD ID: 51891
Int'l Code: 2022-022AR
Perigee: 546.0 km
Apogee: 547.8 km
Inclination: 53.2 °
Period: 95.4 minutes
Semi major axis: 6917 km
RCS: Unknown
Launch date: March 3, 2022
Source: United States (US)
Launch site: AIR FORCE EASTERN TEST RANGE (AFETR)
Your satellite tracking list
IRIDIUM 134
Track 1 satellite(s)




NASA's NSSDC Master Catalog

Two Line Element Set (TLE):
1 51891U 22022AR  25199.65170977  .00000898  00000-0  74480-4 0  9992
2 51891  53.2191 329.7579 0001267  90.5951 269.5186 15.08837786187965
Source of the keplerian elements: AFSPC